Погода Терней

Погода Терней : погода сейчас, прогноз погоды и архив. Всё, что Вы хотите узнать о погоде Терней!

Хотите узнать прогноз погоды Терней? Тогда Вам сюда: Погода Терней

Поиск расширенной информации на нашем сайте:

Другие новости

Новости СМИ2

Главная страница сайта

Новости сайта

03.07.2017

Напоминаем, что на нашем специализированном сайте Метеоцентр.Азия вы можете получить высокодетализированные автоматические прогнозы погоды по пунктам России, СНГ и мира в авиационном формате (включающие направление и скорость ветра, видимость, явления погоды, количество и форму облачности, нижнюю и верхнюю границу облачности).


Погода Терней - сегодня

Время (UTC), дата Ветер
(°,м/с) 
Видим.   Явления Облачность Т
(°С)
Тd
(°С)
f(%) Тe
(°С)
Pmin
(гПа)
dP
(гПа)
Po
(мм)
O2
(г/м3)
Тmin Tmax R s Состояние
почвы
21 19.09.17 290 (З) 20000 м    4/3 600 м средняя 
[Sc|Ac lent]
+13.1 +10.6 85 +16  1002.9  0.3  747  285  +12.1        влажная 
00 20.09.17 330 (СЗ) 20000 м    8/3 600 м средняя 
[Sc|Ac trans]
+21 +11.9 56 +25  1003.7  0.9  747  277  +11.9         
03 20.09.17 350 (С) 20000 м    8/8 600 м 
[Sc]
+22 +11.8 52 +26  1002.5  -1.2  747  276           
06 20.09.17 310 (СЗ) 3{10}  20000 м    6/6 600 м 
[Sc]
+22.5 +12.5 53 +27  1000.7  -1.8  745  275           
09 20.09.17 280 (З) 3{10}  20000 м    8/3 600 м верхняя 
[Sc|Ci]
+18.9 +10.4 58 +22  1002.8  747  280    +23.5       
12 20.09.17 260 (З) 20000 м    1/1 600 м 
[Sc]
+14.3 +11.4 83 +19  1006  3.1  749  285           
15 20.09.17 320 (СЗ) 20000 м    ясно 
+11.1 +9 87 +11  1006.8  0.7  750  289           
18 20.09.17 320 (СЗ) 20000 м    ясно 
+10.8 +8.6 86 +10  1007.4  0.6  750  289           
21 20.09.17 290 (З) 20000 м    ясно 
+12.1 +9.9 86 +13  1008.7  1.3  751  288  +9.7        влажная 
00 21.09.17 310 (СЗ) 20000 м    ясно 
+20.8 +11.8 56 +24  1009.2  0.7  752  279           
03 21.09.17 270 (З) 3{10}  20000 м    ясно 
+24.6 +7 32 +25  1008.7  -0.4  751  277           
06 21.09.17 290 (З) 20000 м    ясно 
+25.7 +5.5 27 +26  1007.8  -0.9  751  276           
09 21.09.17 260 (З) 2{10}  20000 м    ясно 
+19.2 +5.4 40 +20  1009.3  1.4  752  282    +26       
12 21.09.17 280 (З) 20000 м    ясно 
+15.7 +4.8 48 +15  1011  1.6  753  286           
15 21.09.17 300 (СЗ) 20000 м    ясно 
+12.3 +5.7 64 +12  1012.3  1.2  754  290           
18 21.09.17 320 (СЗ) 20000 м    ясно 
+11.1 +6.3 72 +11  1013.3  0.9  754  291           
21 21.09.17 310 (СЗ) 20000 м    ясно 
+8.8 +6.2 84 +9  1014.6  1.3  755  294  +8.7        сухая 
00 22.09.17 310 (СЗ) 20000 м    ясно 
+16.7 +8.7 59 +18  1015  0.6  756  285           
03 22.09.17 110 (В) 20000 м    1/0 верхняя 
[Ci]
+19.9 +11.3 58 +24  1014.4  -0.5  755  282           
06 22.09.17 130 (ЮВ) 20000 м    ясно 
+18.1 +12.5 70 +23  1014  -0.4  755  283           
09 22.09.17 150 (ЮВ) 20000 м    3/1 300 м верхняя 
[St|Ci fib]
+15.1 +13.1 88 +21  1014.7  0.6  756  286    +21.9       
12 22.09.17 330 (СЗ) 20000 м    8/8 300 м 
[St]
+12.5 +11.1 91 +15  1015.7  0.9  756  289           
15 22.09.17 320 (СЗ) 20000 м    3/3 300 м 
[St]
+10.8 +9.3 90 +11  1015.6  -0.2  756  291           
18 22.09.17 330 (СЗ) 20000 м    ясно 
+9.3 +8.4 94 +9  1015.3  -0.3  756  293           
21 22.09.17 330 (СЗ) 20000 м    10/10 300 м 
[St]
+9.1 +8.3 95 +9  1014.9  -0.3  756  293  +8.6        сухая 
Время (UTC), дата Ветер
(°,м/с) 
Видим.   Явления Облачность Т
(°С)
Тd
(°С)
f(%) Тe
(°С)
Pmin
(гПа)
dP
(гПа)
Po
(мм)
O2
(г/м3)
Тmin Tmax R s Состояние
почвы

Для получения пояснительной информации подведите курсор к названию столбца.

ПОГОДА Терней - архив

Всё, что Вы хотите узнать о погоде Терней - удобно и подробно!

Выберите нужную дату (начиная с 1 января 2015* года) и нажмите кнопку "Найти".
Будут отображены архивные сводки погоды по пункту Терней, начиная с указанной даты.


Отображать данные в формате CSV (для использования в таблицах Excel)


Внимание! Наш архив погоды предназначен исключительно для личного некоммерческого использования в познавательных целях. Если Вам необходимы официальные справки о состоянии погоды (для производственных, юридических, коммерческих и т.п. целей), обращайтесь в органы Росгидромета.

*Примечание: данная дата относится к архиву по метеостанциям СССР (Россия, СНГ, Балтия).
Архив по метеостанциям Зарубежной Европы и Азии (кроме Китая) хранится 10 дней, по другим регионам земного шара (Китай, Африка, Америка, Австралия, Океания) - 1 день.

Терней - район местоположения метеостанции


Название, широта, долгота, высота метеостанции:
Терней 45°ш. 136.6°д. 68 м над ур. моря [Российская Федерация]

Дополнительная информация

В oтличие oт бoльшинства пoгoдных сайтoв мы публикуем пoдрoбную метеoинфoрмацию в детальнoм прoфессиoнальнoм фoрмате.

Характеристики температуры и влажнoсти вoздуха измеряются на высoте 2 м в тени вдали oт зданий и деревьев.
Скoрoсть ветра измеряется на высoте 10 м (на урoвне рoста челoвека скoрoсть ветра ниже в 1.5-2 раза). Если метеoстанция нахoдится в гoрoде или в лесу, тo скoрoсть ветра занижена на 2-4 м/с пo сравнению с oткрытым местoм. Скoрoсть ветра над акватoриями крупных рек и oзёр, а также на вершинах хoлмoв на 2-5 м/с выше, чем в oбычных услoвиях.
Атмoсфернoе давление в разных тoчках местнoсти мoжет значительнo oтличаться oт давления на метеoстанции, в зависимoсти oт услoвий рельефа (при пoдъёме на 10 м давление пoнижается примернo на 1 мм рт.ст.).